YAOGAN-30 05A (43170 NORAD) Tracking and Keplerian Element Data

This shows tracking and keplerian element data for the satellite.

Feedback or suggestion? Click here.




ElementValue
Catalog43170
NameYAOGAN-30 05A
Epoch Orbit38334
Epoch Day35.07222572
Epoch Year2025
RAAN298.4446
Inclination34.9965
Eccentricity0.0005577
Argument of Perigee296.6145
Mean Anonmoly63.399
Mean Motion14.98618207
Decay Rate5.81E-05
L11 43170U 18011B 25035.07222572 .00005810 00000+0 47666-3 0 9993
L22 43170 34.9965 298.4446 0005577 296.6145 63.3990 14.98618207383344



Live tracking and technical data element details for YAOGAN-30 05A (NORAD 43170). YAOGAN-30 05A can be tracked NOW for your location showing map with azimuth and elevation plus other details from your city location.







IsCatalogInMostPopularTable: catalog: 43170, numindb: 542
Update: records affected: 1



GetName: 43170 YAOGAN-30 05A

Hit Count: updated at: Sat, 17 May 2025 10:08:10 GMT